Tracking 18796 objects as of 19-September-2017
HD Live streaming from Space Station
objects crossing your sky now

COSMOS 2334

Track COSMOS 2334 now!
10-day predictions
COSMOS 2334 is classified as:


NORAD ID: 24304
Int'l Code: 1996-052A
Perigee: 971.4 km
Apogee: 1,016.6 km
Inclination: 82.9 °
Period: 104.8 minutes
Semi major axis: 7365 km
RCS: 2.1605 m2 (large)
Launch date: September 5, 1996
Source: Commonwealth of Independent States (former USSR) (CIS)
Launch site: PLESETSK MISSILE AND SPACE COMPLEX (PKMTR)
aabbcc
Your satellite tracking list
Your tracking list is empty





NASA's NSSDC Master Catalog

Two Line Element Set (TLE):
1 24304U 96052A   17262.16334583 +.00000055 +00000-0 +42416-4 0  9997
2 24304 082.9312 283.3635 0030667 145.1274 295.8196 13.73543385054276
Source of the keplerian elements: AFSPC